• In Deutschland
  • Länderverzeichnis
  • Für 7 Tage
  • Wassertemperatur
  • Satellitenkarten
  • Wetterkarte
  • Widgets
  • user-avatar
    Anmelden

    Stündliche Wetter Krasilnikov

    Heute, 21 Juli, Samstag

    Zeit Temperatur Niederschläge Wind Luftdruck Luftfeuchtigkeit
    00:00 +21°C° 0,4 mm 3 m/S 741 mmHg 81%
    01:00 +21°C° 0,2 mm 3 m/S 741 mmHg 83%
    02:00 +21°C° 0,2 mm 3 m/S 741 mmHg 84%
    03:00 +21°C° 0,2 mm 3 m/S 741 mmHg 86%
    04:00 +21°C° 0 mm 3 m/S 741 mmHg 85%
    05:00 +21°C° 0 mm 3 m/S 741 mmHg 85%
    06:00 +21°C° 0 mm 3 m/S 741 mmHg 85%
    07:00 +24°C° 0 mm 3 m/S 742 mmHg 77%
    08:00 +26°C° 0 mm 3 m/S 742 mmHg 69%
    09:00 +28°C° 0 mm 3 m/S 742 mmHg 61%
    10:00 +29°C° 0,1 mm 4 m/S 742 mmHg 56%
    11:00 +30°C° 0,1 mm 4 m/S 742 mmHg 50%
    12:00 +33°C° 0,1 mm 4 m/S 742 mmHg 45%
    13:00 +32°C° 0 mm 4 m/S 742 mmHg 45%
    14:00 +32°C° 0 mm 4 m/S 742 mmHg 46%
    15:00 +32°C° 0 mm 5 m/S 742 mmHg 47%
    16:00 +32°C° 0 mm 5 m/S 742 mmHg 48%
    17:00 +32°C° 0 mm 5 m/S 742 mmHg 49%
    18:00 +30°C° 0 mm 5 m/S 742 mmHg 50%
    19:00 +29°C° 0 mm 4 m/S 742 mmHg 55%
    20:00 +27°C° 0 mm 4 m/S 742 mmHg 59%
    21:00 +26°C° 0 mm 3 m/S 742 mmHg 64%
    22:00 +25°C° 0 mm 3 m/S 742 mmHg 66%
    23:00 +25°C° 0 mm 3 m/S 742 mmHg 69%

    Morgen, 22 Juli, Sonntag

    Zeit Temperatur Niederschläge Wind Luftdruck Luftfeuchtigkeit
    00:00 +24°C° 0 mm 3 m/S 742 mmHg 71%
    01:00 +24°C° 0 mm 3 m/S 742 mmHg 73%
    02:00 +24°C° 0 mm 3 m/S 742 mmHg 75%
    03:00 +23°C° 0 mm 2 m/S 742 mmHg 77%
    04:00 +23°C° 0 mm 2 m/S 742 mmHg 77%
    05:00 +24°C° 0 mm 2 m/S 742 mmHg 78%
    06:00 +24°C° 0 mm 2 m/S 742 mmHg 78%
    07:00 +25°C° 0,1 mm 2 m/S 742 mmHg 71%
    08:00 +27°C° 0,1 mm 2 m/S 742 mmHg 64%
    09:00 +29°C° 0,1 mm 3 m/S 742 mmHg 57%
    10:00 +30°C° 0,2 mm 3 m/S 742 mmHg 53%
    11:00 +32°C° 0,2 mm 4 m/S 742 mmHg 49%
    12:00 +33°C° 0,2 mm 4 m/S 742 mmHg 45%
    13:00 +33°C° 0 mm 5 m/S 742 mmHg 44%
    14:00 +33°C° 0 mm 5 m/S 742 mmHg 44%
    15:00 +33°C° 0 mm 5 m/S 742 mmHg 43%
    16:00 +33°C° 0 mm 4 m/S 742 mmHg 45%
    17:00 +32°C° 0 mm 4 m/S 741 mmHg 47%
    18:00 +32°C° 0 mm 4 m/S 741 mmHg 49%
    19:00 +29°C° 0,1 mm 4 m/S 742 mmHg 54%
    20:00 +28°C° 0,1 mm 3 m/S 742 mmHg 59%
    21:00 +26°C° 0,1 mm 3 m/S 742 mmHg 65%
    22:00 +25°C° 0,6 mm 3 m/S 742 mmHg 69%
    23:00 +25°C° 0,6 mm 2 m/S 742 mmHg 73%

    übermorgen, 23 Juli, Montag

    Zeit Temperatur Niederschläge Wind Luftdruck Luftfeuchtigkeit
    00:00 +24°C° 0,6 mm 2 m/S 742 mmHg 78%
    01:00 +24°C° 0,1 mm 2 m/S 742 mmHg 79%
    02:00 +23°C° 0,1 mm 2 m/S 742 mmHg 79%
    03:00 +23°C° 0,1 mm 2 m/S 742 mmHg 80%
    04:00 +23°C° 0,5 mm 1 m/S 742 mmHg 80%
    05:00 +23°C° 0,5 mm 1 m/S 742 mmHg 80%
    06:00 +24°C° 0,5 mm 1 m/S 742 mmHg 80%
    07:00 +25°C° 0,1 mm 1 m/S 742 mmHg 73%
    08:00 +27°C° 0,1 mm 1 m/S 742 mmHg 66%
    09:00 +29°C° 0,1 mm 2 m/S 742 mmHg 58%
    10:00 +30°C° 0,1 mm 2 m/S 742 mmHg 53%
    11:00 +31°C° 0,1 mm 2 m/S 742 mmHg 47%
    12:00 +32°C° 0,1 mm 2 m/S 742 mmHg 41%
    13:00 +32°C° 0 mm 2 m/S 742 mmHg 42%
    14:00 +32°C° 0 mm 2 m/S 742 mmHg 42%
    15:00 +32°C° 0 mm 2 m/S 742 mmHg 42%
    16:00 +32°C° 0 mm 1 m/S 742 mmHg 43%
    17:00 +31°C° 0 mm 1 m/S 742 mmHg 44%
    18:00 +31°C° 0 mm 1 m/S 742 mmHg 45%
    19:00 +30°C° 0 mm 1 m/S 742 mmHg 48%
    20:00 +29°C° 0 mm 1 m/S 742 mmHg 50%
    21:00 +28°C° 0 mm 1 m/S 743 mmHg 52%
    22:00 +27°C° 0,4 mm 1 m/S 743 mmHg 57%
    23:00 +26°C° 0,4 mm 1 m/S 742 mmHg 62%

    24 Juli, Dienstag

    Zeit Temperatur Niederschläge Wind Luftdruck Luftfeuchtigkeit
    00:00 +25°C° 0,4 mm 1 m/S 742 mmHg 66%
    01:00 +24°C° 1,2 mm 1 m/S 742 mmHg 70%
    02:00 +24°C° 1,2 mm 2 m/S 742 mmHg 75%
    03:00 +23°C° 1,2 mm 2 m/S 742 mmHg 79%
    04:00 +24°C° 0,1 mm 1 m/S 742 mmHg 79%
    05:00 +24°C° 0,1 mm 1 m/S 743 mmHg 79%
    06:00 +22°C° 0,1 mm 0 m/S 743 mmHg 79%
    07:00 +25°C° 0,5 mm 1 m/S 743 mmHg 72%
    08:00 +27°C° 0,5 mm 1 m/S 743 mmHg 65%
    09:00 +29°C° 0,5 mm 1 m/S 743 mmHg 58%
    10:00 +30°C° 0,4 mm 1 m/S 743 mmHg 54%
    11:00 +31°C° 0,4 mm 1 m/S 743 mmHg 49%
    12:00 +32°C° 0,4 mm 1 m/S 743 mmHg 44%
    13:00 +32°C° 0 mm 1 m/S 743 mmHg 43%
    14:00 +32°C° 0 mm 1 m/S 743 mmHg 41%
    15:00 +33°C° 0 mm 1 m/S 743 mmHg 40%
    16:00 +32°C° 0 mm 1 m/S 743 mmHg 42%
    17:00 +32°C° 0 mm 1 m/S 743 mmHg 45%
    18:00 +31°C° 0 mm 1 m/S 743 mmHg 47%
    19:00 +30°C° 0 mm 1 m/S 743 mmHg 50%
    20:00 +29°C° 0 mm 2 m/S 743 mmHg 53%
    21:00 +28°C° 0 mm 2 m/S 743 mmHg 56%
    22:00 +27°C° 0 mm 2 m/S 743 mmHg 58%
    23:00 +26°C° 0 mm 2 m/S 744 mmHg 60%

    25 Juli, Mittwoch

    Zeit Temperatur Niederschläge Wind Luftdruck Luftfeuchtigkeit
    00:00 +26°C° 0 mm 2 m/S 744 mmHg 62%
    01:00 +25°C° 0,2 mm 2 m/S 743 mmHg 64%
    02:00 +25°C° 0,2 mm 2 m/S 743 mmHg 65%
    03:00 +25°C° 0,2 mm 2 m/S 743 mmHg 67%
    04:00 +25°C° 0,3 mm 2 m/S 743 mmHg 69%
    05:00 +25°C° 0,3 mm 2 m/S 744 mmHg 71%
    06:00 +25°C° 0,3 mm 2 m/S 744 mmHg 73%
    07:00 +26°C° 0,4 mm 3 m/S 744 mmHg 68%
    08:00 +28°C° 0,4 mm 3 m/S 744 mmHg 64%
    09:00 +30°C° 0,4 mm 3 m/S 744 mmHg 59%
    10:00 +32°C° 0,6 mm 4 m/S 744 mmHg 55%
    11:00 +33°C° 0,6 mm 4 m/S 744 mmHg 50%
    12:00 +34°C° 0,6 mm 4 m/S 744 mmHg 46%
    13:00 +34°C° 0 mm 4 m/S 744 mmHg 46%
    14:00 +34°C° 0 mm 4 m/S 744 mmHg 45%
    15:00 +34°C° 0 mm 4 m/S 744 mmHg 44%
    16:00 +34°C° 0 mm 4 m/S 744 mmHg 47%
    17:00 +34°C° 0 mm 4 m/S 744 mmHg 49%
    18:00 +33°C° 0 mm 4 m/S 744 mmHg 51%
    19:00 +32°C° 0 mm 4 m/S 744 mmHg 54%
    20:00 +30°C° 0 mm 3 m/S 744 mmHg 58%
    21:00 +28°C° 0 mm 3 m/S 744 mmHg 61%
    22:00 +28°C° 0,3 mm 3 m/S 744 mmHg 64%
    23:00 +27°C° 0,3 mm 3 m/S 744 mmHg 66%

    26 Juli, Donnerstag

    Zeit Temperatur Niederschläge Wind Luftdruck Luftfeuchtigkeit
    00:00 +26°C° 0,3 mm 3 m/S 744 mmHg 69%
    01:00 +26°C° 0,1 mm 3 m/S 744 mmHg 69%
    02:00 +25°C° 0,1 mm 3 m/S 744 mmHg 69%
    03:00 +24°C° 0,1 mm 3 m/S 744 mmHg 70%
    04:00 +24°C° 0,1 mm 3 m/S 744 mmHg 70%
    05:00 +24°C° 0,1 mm 3 m/S 744 mmHg 70%
    06:00 +24°C° 0,1 mm 3 m/S 744 mmHg 70%
    07:00 +26°C° 0,3 mm 3 m/S 744 mmHg 64%
    08:00 +28°C° 0,3 mm 4 m/S 745 mmHg 58%
    09:00 +30°C° 0,3 mm 4 m/S 745 mmHg 53%
    10:00 +32°C° 0 mm 4 m/S 745 mmHg 46%
    11:00 +34°C° 0 mm 5 m/S 745 mmHg 40%
    12:00 +36°C° 0 mm 5 m/S 745 mmHg 34%
    13:00 +36°C° 0 mm 5 m/S 745 mmHg 32%
    14:00 +36°C° 0 mm 5 m/S 745 mmHg 31%
    15:00 +37°C° 0 mm 5 m/S 744 mmHg 30%
    16:00 +37°C° 0 mm 5 m/S 744 mmHg 31%
    17:00 +36°C° 0 mm 4 m/S 744 mmHg 33%
    18:00 +36°C° 0 mm 4 m/S 744 mmHg 35%
    19:00 +34°C° 0 mm 4 m/S 744 mmHg 38%
    20:00 +32°C° 0 mm 4 m/S 744 mmHg 41%
    21:00 +29°C° 0 mm 4 m/S 744 mmHg 45%
    22:00 +29°C° 0 mm 4 m/S 744 mmHg 45%
    23:00 +28°C° 0 mm 4 m/S 744 mmHg 45%
    Mehr zeigen